Liste des engagé(e)s
Classement
PDF
   
         
   
 
Pos N° Nom Prénom Pays Temps Ecart Pl. Cat. Pl. Sexe Club
1 98 DUFOUR AXEL 00:08:18 1 BE 1 M Sdis 01 - Ain
2 29 VERNOUX EMILE 00:08:19 01 2 BE 2 M Sdis 01 - Ain
3 146 PHILIPPE Kylian 00:08:29 11 3 BE 3 M Sdis 74 - haute-savoie
4 138 FRANK MAXIMILIAN 00:08:32 14 4 BE 4 M Sdis 01 - Ain
5 52 HOMMEL KILIAN 00:08:33 15 5 BE 5 M Sdis 01 - Ain
6 151 PYOT Antoine 00:08:35 17 6 BE 6 M Sdis 38 - isère
7 155 DUMOULIN Jérémy 00:08:48 30 7 BE 7 M Sdis 38 - isère
8 165 KEZAI Issam 00:08:50 32 8 BE 8 M Sdmis 69 - rhĂ´ne
9 144 FOUILLEN Nathan 00:08:51 33 9 BE 9 M Sdis 74 - haute-savoie
10 149 BARBE Tom 00:08:53 35 10 BE 10 M Sdis 38 - isère
11 56 AMHARRAR DENAYROUSE NAEL 00:08:55 37 11 BE 11 M Sdis 01 - Ain
12 139 LINDMEIER MAXIMILIAN 00:08:58 40 12 BE 12 M Sdis 01 - Ain
13 140 MIGNIOT DORIAN 00:09:00 42 13 BE 13 M Sdis 01 - Ain
14 157 MAYET Tom 00:09:06 48 14 BE 14 M Sdis 38 - isère
15 147 BECHET Luca 00:09:06 48 15 BE 15 M Sdis 74 - haute-savoie
16 154 CANDAU Eliot 00:09:12 54 16 BE 16 M Sdis 38 - isère
17 123 GHILOTTI NOHLAN 00:09:13 55 17 BE 17 M Sdis 01 - Ain
18 73 FLEJSZMAN NOAH 00:09:14 56 18 BE 18 M Sdis 01 - Ain
19 62 MAALAL HEDDY 00:09:14 56 19 BE 19 M Sdis 01 - Ain
20 90 DEWAREZ RIWAL 00:09:15 57 20 BE 20 M Sdis 01 - Ain
21 72 FERRERO ALESSSANDRO 00:09:19 01:01 21 BE 21 M Sdis 01 - Ain
22 85 POUPON ANTHONY 00:09:20 01:02 22 BE 22 M Sdis 01 - Ain
23 106 POIREL TOM 00:09:24 01:06 23 BE 23 M Sdis 01 - Ain
24 76 SEGRETO RAPHAEL 00:09:27 01:09 24 BE 24 M Sdis 01 - Ain
25 122 CASAGRAUDE ANTOINE 00:09:30 01:12 25 BE 25 M Sdis 01 - Ain
26 61 FERROILLET EMILIEN 00:09:33 01:15 26 BE 26 M Sdis 01 - Ain
27 77 THIBERT JULIEN 00:09:33 01:15 27 BE 27 M Sdis 01 - Ain
28 152 FOUREL Yohan 00:09:34 01:16 28 BE 28 M Sdis 38 - isère
29 87 FERREIRA MANES 00:09:37 01:19 29 BE 29 M Sdis 01 - Ain
30 91 EPINAT MATHEO 00:09:39 01:21 30 BE 30 M Sdis 01 - Ain
31 1330 GAILLARD ETHAN 00:09:46 01:28 31 BE 31 M Sdis 01 - Ain
32 156 GOUD Nolan 00:09:47 01:29 32 BE 32 M Sdis 38 - isère
33 54 SCHNEIDER DUVERNOIS AYMERICK 00:09:49 01:31 33 BE 33 M Sdis 01 - Ain
34 51 COQUELIN LUCAS 00:09:49 01:31 34 BE 34 M Sdis 01 - Ain
35 137 CHELLES ANTOINE 00:09:50 01:32 35 BE 35 M Sdis 01 - Ain
36 57 DOUIDI Abdelraouf 00:09:50 01:32 36 BE 36 M Sdis 01 - Ain
37 92 GROS GALVIN 00:09:52 01:34 37 BE 37 M Sdis 01 - Ain
38 59 BAGNON TOMY 00:09:53 01:35 38 BE 38 M Sdis 01 - Ain
39 113 BOUSSANT FLAVIEN 00:09:53 01:35 39 BE 39 M Sdis 01 - Ain
40 109 NOTTEAU LUCAS 00:09:54 01:36 40 BE 40 M Sdis 01 - Ain
41 69 ARNOUX JULIEN 00:09:54 01:36 41 BE 41 M Sdis 01 - Ain
42 119 DIOCHON ROMAIN 00:09:57 01:39 42 BE 42 M Sdis 01 - Ain
43 55 SIMARD LUC 00:09:57 01:39 43 BE 43 M Sdis 01 - Ain
44 160 BONNEAU Eliott 00:10:07 01:49 44 BE 44 M Sdis 03 - allier
45 65 FERLET HUGO 00:10:07 01:49 45 BE 45 M Sdis 01 - Ain
46 70 BIOLAY THEO 00:10:09 01:51 46 BE 46 M Sdis 01 - Ain
47 143 NOYER ENZO 00:10:09 01:51 47 BE 47 M Sdis 01 - Ain
48 161 RAGON Antoine 00:10:10 01:52 48 BE 48 M Sdis 03 - allier
49 95 CALEN SULLIVAN 00:10:11 01:53 49 BE 49 M Sdis 01 - Ain
50 150 DI BILIO Erwann 00:10:13 01:55 50 BE 50 M Sdis 38 - isère
51 68 LONGE LEO 00:10:16 01:58 51 BE 51 M Sdis 01 - Ain
52 83 CROZET CLEMENT 00:10:21 02:03 52 BE 52 M Sdis 01 - Ain
53 86 ECHALLIER LEO 00:10:22 02:04 53 BE 53 M Sdis 01 - Ain
54 103 FORCHI ILARIO 00:10:22 02:04 54 BE 54 M Sdis 01 - Ain
55 94 PALMA SHAWN 00:10:22 02:04 55 BE 55 M Sdis 01 - Ain
56 58 GROIZARD MATHIS 00:10:25 02:07 56 BE 56 M Sdis 01 - Ain
57 163 DUFFY Axel 00:10:27 02:09 57 BE 57 M Sdis 03 - allier
58 117 SUC SIMEON 00:10:30 02:12 58 BE 58 M Sdis 01 - Ain
59 82 AIT-HATRIT ERWAN 00:10:30 02:12 59 BE 59 M Sdis 01 - Ain
60 53 MARTORANA KILIAN 00:10:34 02:16 60 BE 60 M Sdis 01 - Ain
61 75 NOVO THOMAS 00:10:34 02:16 61 BE 61 M Sdis 01 - Ain
62 71 DELETRAZ LEO 00:10:46 02:28 62 BE 62 M Sdis 01 - Ain
63 93 LLES SACHA 00:10:59 02:41 63 BE 63 M Sdis 01 - Ain
64 118 TENANT MARCELIN 00:11:00 02:42 64 BE 64 M Sdis 01 - Ain
65 111 FRACHET ELIOT 00:11:03 02:45 65 BE 65 M Sdis 01 - Ain
66 108 GARGANTINI HUGO 00:11:06 02:48 66 BE 66 M Sdis 01 - Ain
67 78 BERTHET CORENTIN 00:11:06 02:48 67 BE 67 M Sdis 01 - Ain
68 64 BUFFET NATHANAEL 00:11:08 02:50 68 BE 68 M Sdis 01 - Ain
69 136 SCOBRY LOIC 00:11:12 02:54 69 BE 69 M Sdis 01 - Ain
70 60 DURAFFOURD NOA 00:11:22 03:04 70 BE 70 M Sdis 01 - Ain
71 120 ARAUJO THOMAS 00:11:31 03:13 71 BE 71 M Sdis 01 - Ain
72 74 MERIDJI NOAH 00:11:32 03:14 72 BE 72 M Sdis 01 - Ain
73 158 MICHELI Clément 00:11:34 03:16 73 BE 73 M Sdis 38 - isère
74 134 PRAT TEO 00:11:34 03:16 74 BE 74 M Sdis 01 - Ain
75 141 SOROS JULIEN 00:11:48 03:30 75 BE 75 M Sdis 01 - Ain
76 100 FOLLET-TROSSET LILOU 00:11:57 03:39 76 BE 76 M Sdis 01 - Ain
77 104 JAMET ARTHUR 00:12:27 04:09 77 BE 77 M Sdis 01 - Ain
78 105 PEHLIVANIAN REMY 00:12:39 04:21 78 BE 78 M Sdis 01 - Ain
79 128 DEPREZ Lilian 00:12:58 04:40 79 BE 79 M Sdis 01 - Ain
80 66 BENABDERRAHMANE LYAM 00:13:14 04:56 80 BE 80 M Sdis 01 - Ain
81 84 PICCOLI ROMAIN 00:13:30 05:12 81 BE 81 M Sdis 01 - Ain
82 153 ATTAVAY Luca 00:13:45 05:27 82 BE 82 M Sdis 38 - isère
83 135 ROUSSELEAU ROMAIN 00:13:47 05:29 83 BE 83 M Sdis 01 - Ain
84 121 ARTERO YANIS 00:13:51 05:33 84 BE 84 M Sdis 01 - Ain
85 79 CLERTANT EMILIEN 00:13:52 05:34 85 BE 85 M Sdis 01 - Ain
86 96 CAILLOT LALIE 00:16:29 08:11 86 BE 86 M Sdis 01 - Ain
  CROSS REGIONAL POMPIERS - BENJAMINS - ChronomĂ©trage Perf Event 2019
 
Nombre ou lettres (3 minimum)
Classement    
Filtre :
Rang :